Powrót do katalogu

COSMOS 2139

GLONASS

AktywnyNawigacjaMEO
NORAD 21216·PAYLOAD·🇷🇺 Russia

Wystrzelony Apr 4, 1991 z Baikonur Cosmodrome

Loading…

Następne Przeloty (najbliższe 24 godziny)

TLE

ŚwieżeSource: Space-Track

Epoka: Sep 14, 2026, 02:40 UTC

1 21216U 91025A   26257.11138448 -.00000038  00000-0  00000-0 0  9993
2 21216  64.3024 301.2816 0017702 220.6566 139.2810  2.13105675275826

Śledź COSMOS 2139 w czasie rzeczywistym z AllMySat

Download on the App Store